Printer-friendly version

IAU Minor Planet Center

Minor Planet Center

MPEC 2004-U57 : 2004 UV1

The following Minor Planet Electronic Circular may be linked-to from your own Web pages, but must not otherwise be redistributed electronically.


Read MPEC 2004-U56 Read MPEC 2004-U58


M.P.E.C. 2004-U57                                Issued 2004 Oct. 28, 14:44 UT

     The Minor Planet Electronic Circulars contain information on unusual
         minor planets and routine data on comets.  They are published
   on behalf of Commission 20 of the International Astronomical Union by the
          Minor Planet Center, Smithsonian Astrophysical Observatory,
                          Cambridge, MA 02138, U.S.A.

                  Supported in part by the Brinson Foundation
             Prepared using the Tamkin Foundation Computer Network

                              MPC@CFA.HARVARD.EDU
          URL http://cfa-www.harvard.edu/iau/mpc.html  ISSN 1523-6714

                                   2004 UV1

Observations:
     K04U01V* C2004 10 25.52554 01 44 21.76 -40 02 56.6          17.7 R EU057E12
     K04U01V  C2004 10 25.53418 01 44 20.79 -40 02 58.9          18.4 R EU057E12
     K04U01V  C2004 10 25.54289 01 44 19.79 -40 03 00.1          17.7 R EU057E12
     K04U01V  C2004 10 25.55150 01 44 18.83 -40 03 01.5          18.7 R EU057E12
     K04U01V  C2004 10 25.63360 01 44 09.21 -40 03 13.6          18.2 R EU057E12
     K04U01V  C2004 10 25.64542 01 44 07.83 -40 03 14.1          18.3 R EU057E12
     K04U01V  C2004 10 25.65716 01 44 06.42 -40 03 15.9          19.1 R EU057E12
     K04U01V  C2004 10 25.74316 01 43 56.60 -40 03 24.6          18.1 R EU057E12
     K04U01V  C2004 10 25.74531 01 43 56.37 -40 03 24.8          18.1 R EU057E12
     K04U01V  C2004 10 25.74744 01 43 56.10 -40 03 25.0          18.3 R EU057E12
     K04U01V  C2004 10 25.74959 01 43 55.90 -40 03 25.9          18.5 R EU057E12
     K04U01V 2C2004 10 28.03396 01 39 41.14 -40 06 18.3          17.9 R EU057I05
     K04U01V 2C2004 10 28.03493 01 39 40.98 -40 06 18.8          17.6 R EU057I05
     K04U01V 2C2004 10 28.03590 01 39 40.85 -40 06 18.6          17.8 R EU057I05
     K04U01V 2C2004 10 28.03689 01 39 40.71 -40 06 18.5          18.1 R EU057I05
     K04U01V  C2004 10 28.48225 01 38 49.23 -40 06 14.7          18.1 R EU057E12
     K04U01V  C2004 10 28.48566 01 38 48.79 -40 06 14.4          18.4 R EU057E12
     K04U01V  C2004 10 28.48909 01 38 48.30 -40 06 14.5          18.2 R EU057E12
     K04U01V  C2004 10 28.49250 01 38 47.87 -40 06 15.6          18.8 R EU057E12

Observer details:
E12 Siding Spring Survey.  Observer R. H. McNaught.  Measurers E. C. Beshore,
    E. J. Christensen, G. J. Garradd, R. E. Hill, S. M. Larson, R. H. McNaught.
    0.5-m Uppsala Schmidt + CCD.
I05 Las Campanas Observatory-TIE.  Observers G. Masi, F. Mallia, R. Wilcox.
    Measurer G. Masi.  0.36-m SoTIE reflector + CCD.

Orbital elements:
2004 UV1                                                             PHA 0.033A
Epoch 2004 Oct. 22.0 TT = JDT 2453300.5                 MPC
M 343.47481              (2000.0)            P               Q
n   0.20741485     Peri.   20.04845     -0.10268346     -0.93168406
a   2.8264598      Node    77.11859     +0.85693747     -0.26073169
e   0.6433566      Incl.   20.94372     +0.50508839     +0.25295021
P   4.75           H   17.7           G   0.15
From 19 observations 2004 Oct. 25-28.

Ephemeris:
2004 UV1                 a,e,i = 2.83, 0.64, 21                  q = 1.0080
Date    TT    R. A. (2000) Decl.     Delta      r     Elong.  Phase     V
2004 10 22    01 50.56   -39 47.9    0.590    1.442   129.1    32.4    18.7
2004 11 01    01 31.89   -39 57.9    0.527    1.360   124.2    37.1    18.5
2004 11 11    01 11.45   -38 10.6    0.470    1.281   118.3    42.9    18.3
2004 11 21    00 52.47   -33 59.9    0.417    1.208   111.9    49.4    18.1
2004 12 01    00 37.32   -27 05.4    0.369    1.142   105.6    56.3    17.9
2004 12 11    00 26.60   -17 02.5    0.325    1.086    99.4    63.5    17.7
2004 12 21    00 19.84   -03 24.7    0.289    1.043    93.8    70.2    17.6
2004 12 31    00 15.74   +13 41.2    0.267    1.017    89.5    75.3    17.5
2005 01 10    00 13.23   +32 38.8    0.265    1.008    87.7    77.1    17.5
2005 01 20    00 12.31   +50 41.9    0.283    1.018    88.7    75.1    17.6
2005 01 30    00 15.00   +65 58.0    0.318    1.046    92.0    70.3    17.8
2005 02 09    00 33.09   +78 18.8    0.364    1.089    96.4    64.2    18.0
2005 02 19    04 12.48   +87 22.0    0.416    1.146   101.4    57.8    18.2
2005 03 01    10 27.42   +81 23.7    0.474    1.212   106.2    51.7    18.4
2005 03 11    10 57.14   +73 06.8    0.539    1.286   110.5    46.3    18.7
2005 03 21    11 07.12   +65 14.0    0.614    1.365   113.9    41.9    18.9
2005 03 31    11 14.01   +57 49.1    0.699    1.448   115.8    38.4    19.3
2005 04 10    11 20.72   +50 55.1    0.798    1.532   116.3    35.9    19.6
2005 04 20    11 28.14   +44 34.2    0.910    1.618   115.3    34.2    20.0
2005 04 30    11 36.39   +38 47.7    1.036    1.704   113.0    33.0    20.3
2005 05 10    11 45.41   +33 34.1    1.176    1.790   109.7    32.1    20.7
2005 05 20    11 55.14   +28 50.7    1.327    1.875   105.8    31.3    21.0
2005 05 30    12 05.45   +24 34.3    1.489    1.959   101.3    30.5    21.3
2005 06 09    12 16.25   +20 41.5    1.661    2.042    96.5    29.6    21.6
2005 06 19    12 27.47   +17 09.0    1.839    2.123    91.4    28.6    21.9

Timothy B. Spahr             (C) Copyright 2004 MPC           M.P.E.C. 2004-U57

Read MPEC 2004-U56 Read MPEC 2004-U58


Our Web policy. Index to the CBAT/MPC/ICQ pages.


Valid HTML 4.01!